Regional Weather Roundup
Issued by NWS

Home | Current Version | Previous Version | Graphics & Text | Print | Product List | Glossary On
Versions: 1 2 3 4 5 6 7 8 9 10 11 12 13 14 15 16 17 18 19 20 21 22 23 24 25 26 27 28
000
ASUS45 KSLC 280510
RWRUT

UTAH REGIONAL WEATHER ROUNDUP
NATIONAL WEATHER SERVICE SALT LAKE CITY UT
1100 PM MDT TUE JUN 27 2017

UTZ001>011-023>025-280600-

NORTHERN UTAH

CITY           SKY/WX    TMP DP  RH WIND       PRES   REMARKS
BRIGHAM CITY   CLEAR     77  31  18 NW3       29.89R
HILL AFB       CLEAR     72  38  28 E10       29.90R
LOGAN          CLEAR     65  48  54 SW6       29.91R
OGDEN          CLEAR     75  34  22 NE9       29.87R
SALT LAKE CITY CLEAR     75  36  24 S8        29.85S
TOOELE VALLEY  CLEAR     61  37  41 S8        29.87S
WENDOVER         N/A     81  24  12 VRB6      29.86R
HEBER CITY     CLEAR     59  34  38 CALM      29.97R
WEST JORDAN    CLEAR     71  44  38 CALM      29.89S

$$

UTZ011>015-024>027-280600-

CENTRAL/NORTHEAST UTAH

CITY           SKY/WX    TMP DP  RH WIND       PRES   REMARKS
PROVO AIRPORT  CLEAR     70  40  33 SE6       29.89R
MOAB/CANYONLAN PTCLDY    76  21  12 CALM      29.80R
DELTA          CLEAR     73  30  20 NE9       29.87S
PRICE          CLEAR     74  28  18 NW5       29.95R
VERNAL         CLEAR     69  27  20 SE5       29.92R

$$

UTZ013>016-019>022-027-280600-

SOUTHERN UTAH

CITY           SKY/WX    TMP DP  RH WIND       PRES   REMARKS
BRYCE CANYON   PTCLDY    64  19  17 W10       30.15R
CEDAR CITY     CLEAR     67  23  19 SW7       29.98R
MILFORD        CLEAR     82  20  10 SW14      29.89R
ST GEORGE      CLEAR     89  21   8 CALM      29.77R
HANKSVILLE     CLEAR     81  23  12 CALM      29.83R
BLANDING       CLEAR     62  20  20 N10       30.03R

$$

REGIONAL REPORTS     COLORADO/ARIZONA

CITY           SKY/WX    TMP DP  RH WIND       PRES   REMARKS
CRAIG, CO      CLOUDY    60  36  40 SW5       30.02R
GRAND JUNCTION PTCLDY    79  33  19 NW10      29.84R
RIFLE, CO      CLEAR     73  25  16 VRB5      29.92R
MONTROSE, CO   CLEAR     70  20  15 SE7       29.95R
CORTEZ, CO     CLEAR     59  24  26 E8        29.98R
COLORADO CITY    N/A     66  30  26 CALM      29.98R
PAGE, AZ       CLEAR     89  19   7 W6        29.86R
GRAND CANYON   CLEAR     66  16  14 SW7       30.13R
KINGMAN, AZ    CLEAR     80  14   8 S10       29.86R
FLAGSTAFF, AZ  CLEAR     67   4   8 SW9       30.17R

$$

REGIONAL REPORTS    NEVADA/IDAHO/WYOMING

CITY           SKY/WX    TMP DP  RH WIND       PRES   REMARKS
LAS VEGAS, NV  CLEAR     97  14   5 SW18G28   29.70R HX  90
ELY, NY        CLEAR     64  13  13 W7        30.04R
ELKO, NV       CLEAR     66  28  24 W3        29.95R
POCATELLO, ID  CLEAR     69  43  38 W13       29.91R
BURLEY, ID     PTCLDY    64  53  67 SE3       29.87R
FORT BRIDGER,    N/A     58  29  33 W5        30.11S
EVANSTON, WY   CLEAR     63  34  33 N3        30.09R
ROCK SPRINGS,  CLEAR     63  33  32 CALM      30.06R
KEMMERER, WY     N/A     55  32  41 NW9       30.10S

$$




USA.gov is the U.S. government's official web portal to all federal, state and local government web resources and services.